Regional Weather Roundup
Issued by NWS

Home | Current Version | Previous Version | Graphics & Text | Print | Product List | Glossary On
Versions: 1 2 3 4 5 6 7 8 9 10 11 12 13 14 15 16 17 18 19 20 21 22 23 24 25 26 27 28 29 30 31 32 33 34 35 36 37 38 39 40 41 42 43 44 45 46 47 48 49 50
651
ASUS44 KMEG 281400
RWRTN
TENNESSEE HOURLY STATE WEATHER ROUNDUP
NATIONAL WEATHER SERVICE MEMPHIS TN
900 AM CDT FRI APR 28 2017

TNZ002-004-019-021-049-052-054-088>092-281500-
WEST TENNESSEE

CITY           SKY/WX    TMP DP  RH WIND       PRES   REMARKS
MEMPHIS INTL   PTSUNNY   67  60  78 S7        29.82S
NWS MEMPHIS      N/A     65 N/A N/A MISG        N/A
JACKSON        MOSUNNY   65  59  81 VRB3      29.87S
DYERSBURG      PTSUNNY   63  56  78 SE12      29.84F
PARIS          MOSUNNY   57  54  88 E8        29.89F
$$

TNZ008-025-027-028-033-062-065-066-281500-
NORTH MIDDLE TENNESSEE

CITY           SKY/WX    TMP DP  RH WIND       PRES   REMARKS
NASHVILLE      CLOUDY    63  55  75 CALM      29.95R
CLARKSVILLE    MOSUNNY   59  52  77 SE6       29.92F
SMYRNA         MOSUNNY   66  58  75 CALM      29.96R
CROSSVILLE     PTSUNNY   67  55  65 S8        30.02S
$$

TNZ061-075-076-078-094-096-097-281500-
SOUTH MIDDLE TENNESSEE

CITY           SKY/WX    TMP DP  RH WIND       PRES   REMARKS
TULLAHOMA      SUNNY     70  61  73 S14       29.96R
WINCHESTER     PTSUNNY   70  61  73 SE9       29.97R
COLUMBIA       CLOUDY   N/A N/A N/A CALM      29.91S
SHELBYVILLE    PTSUNNY   72  63  73 S13       29.95R
$$

TNZ017-018-042-046-047-281500-
NORTHEAST TENNESSEE

CITY           SKY/WX    TMP DP  RH WIND       PRES   REMARKS
TRI CITIES     FOG       59  59 100 CALM      30.07R VSB 1/2
$$

TNZ012-013-036-069-073-074-281500-
CENTRAL EAST TENNESSEE

CITY           SKY/WX    TMP DP  RH WIND       PRES   REMARKS
KNOXVILLE      MOSUNNY   66  58  75 NE3       30.01R
OAK RIDGE      SUNNY     66  57  72 CALM      30.04R
GATLINBURG     SUNNY     64  57  77 CALM      30.02S
$$

TNZ083-085-099-281500-
SOUTHEAST TENNESSEE

CITY           SKY/WX    TMP DP  RH WIND       PRES   REMARKS
CHATTANOOGA    PTSUNNY   64  58  80 CALM      30.02R
$$

SKY/WX REPORTED AS FAIR MEANS FEW OR NO CLOUDS BELOW
12 THOUSAND FEET.





USA.gov is the U.S. government's official web portal to all federal, state and local government web resources and services.